Butte, MT

8:33 PM MST on February 25, 2017 (GMT -0700)
Mooney

Weather History for KBTM - November, 2013

Change the Weather History Date:

Saturday, November 9, 2013

  Actual Average Record
Temperature  
Mean Temperature 31 °F 31 °F  
Max Temperature 43 °F 44 °F 67 °F (2016)
Min Temperature 19 °F 19 °F -26 °F (1986)
Degree Days  
Heating Degree Days 34 34  
Month to date heating degree days 295 286  
Since 1 July heating degree days 1537 1657  
Cooling Degree Days 0 0  
Month to date cooling degree days 0 0  
Year to date cooling degree days 104 81  
Moisture  
Dew Point 21 °F    
Average Humidity 66    
Maximum Humidity 91    
Minimum Humidity 41    
Precipitation  
Precipitation 0.00 in 0.02 in 0.50 in (1909)
Month to date precipitation 0.10 0.18  
Year to date precipitation 11.00 11.84  
Sea Level Pressure  
Sea Level Pressure 30.24 in    
Wind  
Wind Speed 1 mph (ESE)    
Max Wind Speed 6 mph    
Max Gust Speed 8 mph    
Visibility 10 miles    
Events      
T = Trace of Precipitation, MM = Missing Value Source: NWS Daily Summary

Daily Weather History Graph

Daily Weather History Graph

Search for Another Location

Airport or City:

Trip Planner

Search our weather history database for the weather conditions in past years. The results will help you decide how hot, cold, wet, or windy it might be!

Date:

Astronomy

Nov. 09, 2013 Rise Set
Actual Time 7:22 AM MST 5:04 PM MST
Civil Twilight 6:50 AM MST 5:36 PM MST
Nautical Twilight 6:14 AM MST 6:12 PM MST
Astronomical Twilight 5:39 AM MST 6:47 PM MST
Moon 12:58 PM MST (11/9) 11:44 PM MST (11/9)
Length of Visible Light 10h 46m
Length of Day
9h 42m
Waxing Crescent, 45% of the Moon is Illuminated
Nov 9
Waxing Crescent
Nov 9
First Quarter
Nov 17
Full
Nov 25
Last Quarter
Dec 2
New

Hourly Weather History & Observations

Time (MST) Temp. Windchill Dew Point Humidity Pressure Visibility Wind Dir Wind Speed Gust Speed Precip Events Conditions
12:53 AM 27.0 °F - 21.9 °F 81% 30.19 in 10.0 mi Calm Calm - N/A   Scattered Clouds
1:53 AM 26.1 °F - 19.9 °F 78% 30.19 in 10.0 mi Calm Calm - N/A   Clear
2:53 AM 24.1 °F 19.7 °F 19.0 °F 81% 30.20 in 10.0 mi NNW 3.5 mph - N/A   Clear
3:53 AM 23.0 °F - 19.0 °F 85% 30.23 in 10.0 mi Calm Calm - N/A   Clear
4:53 AM 19.9 °F 13.4 °F 17.1 °F 89% 30.25 in 10.0 mi SSE 4.6 mph - N/A   Clear
5:53 AM 21.0 °F - 17.1 °F 85% 30.26 in 10.0 mi Calm Calm - N/A   Clear
6:53 AM 19.9 °F 14.9 °F 16.0 °F 85% 30.28 in 10.0 mi SE 3.5 mph - N/A   Clear
7:53 AM 19.9 °F - 16.0 °F 85% 30.29 in 10.0 mi Calm Calm - N/A   Clear
8:53 AM 25.0 °F - 19.0 °F 78% 30.29 in 10.0 mi Calm Calm - N/A   Clear
9:53 AM 28.0 °F - 19.9 °F 72% 30.31 in 10.0 mi Calm Calm - N/A   Clear
10:53 AM 33.1 °F - 19.9 °F 59% 30.28 in 10.0 mi Calm Calm - N/A   Clear
11:53 AM 36.0 °F - 19.9 °F 52% 30.24 in 10.0 mi Calm Calm - N/A   Clear
12:53 PM 39.0 °F - 19.0 °F 45% 30.21 in 10.0 mi Calm Calm - N/A   Clear
1:53 PM 41.0 °F - 19.0 °F 41% 30.20 in 10.0 mi Calm Calm - N/A   Clear
2:53 PM 41.0 °F - 19.9 °F 43% 30.19 in 10.0 mi Calm Calm - N/A   Clear
3:53 PM 42.1 °F - 21.0 °F 43% 30.20 in 10.0 mi Calm Calm - N/A   Clear
4:53 PM 37.9 °F - 21.0 °F 51% 30.24 in 10.0 mi Calm Calm - N/A   Clear
5:53 PM 32.0 °F 28.7 °F 24.1 °F 73% 30.26 in 10.0 mi SSE 3.5 mph - N/A   Clear
6:53 PM 30.0 °F 25.2 °F 24.1 °F 79% 30.28 in 10.0 mi ESE 4.6 mph - N/A   Clear
7:53 PM 30.9 °F - 25.0 °F 79% 30.27 in 10.0 mi Calm Calm - N/A   Overcast
8:53 PM 30.9 °F - 25.0 °F 79% 30.25 in 10.0 mi Calm Calm - N/A   Overcast
9:53 PM 32.0 °F 28.7 °F 27.0 °F 82% 30.24 in 10.0 mi SE 3.5 mph - N/A   Overcast
10:53 PM 30.9 °F 27.5 °F 26.1 °F 82% 30.22 in 10.0 mi SE 3.5 mph - N/A   Partly Cloudy
11:53 PM 28.9 °F 25.2 °F 25.0 °F 85% 30.21 in 10.0 mi ENE 3.5 mph - N/A   Scattered Clouds